[[{"header":{"parameterUnit":"m.s-1","parameterCategory":1,"la1":30.2991,"la2":30.254,"lo1":-89.0895,"lo2":-89.0444,"dy":0.0017,"dx":0.0017,"nx":28,"ny":28,"refTime":"2025-11-18T09:00:00:Z","depth":0,"parameterNumber":2,"parameterNumberName":"U-component_of_WINDS"},"data":[0,0,0,0,0,0,0,0,0,0,0,0,0,0,0,0,0,0,0,0,0,0,0,0,0,0,0,0,0,0,0,0,0,0,0,0,0,0,0,0,0,0,0,0,0,0,0,0,0,0,0,0,0,0,0,0,0,0,-0.5815,-0.5814,0,-0.5783,-0.5783,-0.5782,-0.5747,-0.5746,-0.5745,-0.5745,-0.5713,-0.5712,-0.5712,0,0,0,0,0,0,0,0,0,0,0,0,0,-0.5846,-0.5846,-0.5815,-0.5814,-0.5814,-0.5783,-0.5783,-0.5782,-0.5747,-0.5746,-0.5745,-0.5745,-0.5713,-0.5712,-0.5712,0,0,0,0,0,0,0,0,0,0,0,0,0,-0.5825,-0.5846,-0.5815,-0.5793,-0.579,-0.5783,-0.5783,-0.5782,-0.5747,-0.5746,-0.5745,-0.5744,-0.5713,-0.5712,-0.5712,-0.5724,0,0,-0.571,-0.571,0,0,0,0,0,0,0,0,-0.5827,-0.5824,-0.5796,-0.5794,-0.5791,-0.5768,-0.5782,-0.5763,-0.5747,-0.5763,-0.5745,-0.5744,-0.5732,-0.573,-0.5725,-0.5723,-0.5721,-0.571,-0.571,-0.571,-0.5709,0,0,0,0,0,0,0,-0.5828,-0.5825,-0.5802,-0.5796,-0.5793,-0.5785,-0.5781,-0.5778,-0.5752,-0.5762,-0.5759,-0.5756,-0.573,-0.5726,-0.5724,-0.5721,-0.571,-0.571,-0.5709,-0.5709,-0.5729,-0.5729,0,0,0,0,0,0,-0.5833,-0.5827,-0.5803,-0.5801,-0.5807,-0.5785,-0.578,-0.5776,-0.5752,-0.5748,-0.5757,-0.5754,-0.5727,-0.5725,-0.5723,-0.5737,-0.571,-0.5709,-0.5709,-0.5728,-0.5729,-0.573,0,0,0,0,0,0,-0.5834,-0.5831,-0.5805,-0.5813,-0.5809,-0.5785,-0.5781,-0.5776,-0.5772,-0.5748,-0.5744,-0.5757,-0.5727,-0.5724,-0.5725,-0.5735,-0.5709,-0.5708,-0.5727,-0.5728,-0.5729,-0.5765,0,0,0,0,0,0,-0.5835,-0.5832,-0.5836,-0.5814,-0.5809,-0.5806,-0.5781,-0.5776,-0.5771,-0.5768,-0.5747,-0.5743,-0.5726,-0.5726,-0.5724,-0.5734,-0.5708,-0.5726,-0.5727,-0.5729,-0.5762,-0.5767,-0.5771,0,0,0,0,0,-0.5836,-0.5847,-0.5836,-0.5833,-0.5814,-0.5807,-0.5804,-0.5784,-0.5772,-0.5776,-0.5761,-0.5744,-0.5734,-0.5726,-0.5724,-0.5734,-0.5725,-0.5727,-0.5729,-0.5761,-0.5766,-0.5771,0,0,0,0,0,0,-0.587,-0.5843,-0.5831,-0.5835,-0.5824,-0.5801,-0.5805,-0.579,-0.5782,-0.5779,-0.5755,-0.575,-0.5754,-0.5744,-0.5735,-0.5746,-0.5727,-0.5729,-0.5752,-0.5757,-0.5761,-0.5764,-0.5707,0,0,0,0,0,-0.5878,-0.5875,-0.5851,-0.5857,-0.5852,-0.583,-0.5826,-0.5812,-0.5799,-0.5794,-0.5779,-0.5768,-0.5762,-0.5759,-0.5753,-0.5761,-0.5757,-0.5767,-0.5771,-0.5775,-0.5777,-0.5782,-0.5786,-0.5736,-0.5736,-0.5736,0,0,-0.5894,-0.5879,-0.5879,-0.5864,-0.5853,-0.5851,-0.5826,-0.5824,-0.5823,-0.5794,-0.5794,-0.5783,-0.5768,-0.5773,-0.5775,-0.5765,-0.579,-0.5777,-0.578,-0.578,-0.5784,-0.5789,-0.5793,-0.5737,-0.5737,-0.5737,0,0,-0.5923,-0.5911,-0.5915,-0.5905,-0.589,-0.5875,-0.5877,-0.5856,-0.5848,-0.5848,-0.5827,-0.5824,-0.5815,-0.5806,-0.5801,-0.5828,-0.5812,-0.5827,-0.5849,-0.5854,-0.5858,-0.5861,-0.5872,-0.5876,-0.5828,-0.5828,-0.5828,0,-0.5946,-0.5941,-0.5919,-0.5919,-0.5914,-0.5888,-0.5892,-0.5884,-0.5867,-0.5864,-0.5854,-0.5843,-0.5831,-0.5834,-0.5841,-0.5837,-0.5838,-0.5829,-0.5859,-0.5862,-0.5865,-0.5875,-0.5879,-0.583,-0.583,-0.583,-0.583,0,-0.597,-0.5967,-0.5972,-0.5958,-0.5953,-0.5955,-0.5934,-0.5932,-0.5918,-0.5905,-0.5906,-0.5891,-0.5882,-0.5882,-0.5868,-0.5884,-0.5878,-0.5864,-0.5845,-0.5872,-0.5882,-0.5885,-0.5833,-0.5832,-0.5832,-0.5831,0,0,-0.6019,-0.5993,-0.5995,-0.5989,-0.597,-0.5968,-0.597,-0.5961,-0.596,-0.595,-0.5951,-0.5945,-0.5932,-0.5925,-0.5911,-0.5915,-0.5939,-0.59,-0.59,-0.5909,-0.5957,-0.5969,-0.5973,-0.5929,-0.5929,-0.593,-0.5959,0,-0.6045,-0.6046,-0.6027,-0.6034,-0.6032,-0.6008,-0.601,-0.5999,-0.5987,-0.5984,-0.5971,-0.5967,-0.595,-0.5946,-0.5949,-0.5936,-0.5949,-0.5933,-0.5931,-0.5931,-0.5936,-0.5978,-0.599,-0.6018,-0.5962,-0.5963,-0.5963,0,-0.6076,-0.6068,-0.6074,-0.6057,-0.6056,-0.6057,-0.6049,-0.6046,-0.6034,-0.6025,-0.6019,-0.6002,-0.6003,-0.5985,-0.5987,-0.5977,-0.5975,-0.5969,-0.5969,-0.5969,-0.5949,-0.5979,-0.6026,-0.6031,-0.5968,-0.5968,-0.5967,0,-0.6112,-0.6103,-0.6106,-0.6101,-0.6081,-0.6083,-0.6075,-0.6062,-0.6058,-0.6051,-0.6049,-0.6041,-0.6038,-0.6033,-0.6015,-0.6003,-0.602,-0.6,-0.6013,-0.6014,-0.6018,-0.6018,-0.6066,-0.6016,-0.6015,-0.6015,-0.6015,0,-0.6144,-0.6149,-0.6123,-0.6125,-0.613,-0.6109,-0.6115,-0.6104,-0.6093,-0.6094,-0.6072,-0.6073,-0.6049,-0.6047,-0.6034,-0.6038,-0.6036,-0.603,-0.6026,-0.6032,-0.6033,-0.6031,-0.6029,-0.6016,-0.6016,-0.6016,-0.6016,0,-0.6186,-0.6168,-0.617,-0.6151,-0.6146,-0.6151,-0.6135,-0.6137,-0.6124,-0.6125,-0.6123,-0.6104,-0.6101,-0.6082,-0.6075,-0.6066,-0.6076,-0.6068,-0.608,-0.6078,-0.6092,-0.6092,-0.6141,-0.6147,-0.6092,-0.6093,-0.6093,0,-0.6207,-0.6211,-0.6193,-0.6191,-0.6184,-0.6182,-0.6179,-0.6158,-0.6155,-0.6143,-0.6146,-0.6142,-0.6137,-0.6133,-0.6118,-0.6113,-0.6106,-0.6123,-0.6105,-0.6111,-0.6107,-0.6107,-0.6108,-0.6127,-0.6128,-0.6129,-0.6129,0,-0.6248,-0.624,-0.6235,-0.6229,-0.6225,-0.6219,-0.6211,-0.6211,-0.6189,-0.6187,-0.6184,-0.618,-0.6173,-0.6169,-0.6162,-0.6154,-0.6138,-0.6135,-0.6138,-0.6144,-0.6152,-0.6149,-0.6092,-0.6134,-0.6133,-0.6133,-0.6133,-0.6133,-0.6281,-0.6284,-0.6272,-0.6268,-0.6261,-0.6254,-0.6255,-0.6243,-0.624,-0.6233,-0.6221,-0.622,-0.6209,-0.6197,-0.6191,-0.619,-0.618,-0.6185,-0.6186,-0.6187,-0.6191,-0.6151,-0.6188,-0.6188,-0.6188,-0.6188,-0.6188,0,-0.6322,-0.6314,-0.631,-0.6301,-0.6298,-0.6284,-0.6275,-0.6274,-0.6273,-0.6264,-0.626,-0.6257,-0.6254,-0.6239,-0.6234,-0.6237,-0.623,-0.6236,-0.6236,-0.6235,-0.6199,-0.6197,-0.6242,-0.6242,-0.6242,-0.6242,-0.6242,-0.6242,-0.6343,-0.6347,-0.6338,-0.6338,-0.6329,-0.6328,-0.6324,-0.6319,-0.6312,-0.631,-0.6307,-0.6297,-0.6286,-0.6281,-0.6277,-0.6273,-0.6273,-0.6282,-0.6276,-0.6242,-0.6237,-0.6232,-0.6231,-0.6282,-0.6282,-0.6312,-0.6312,-0.6312]},{"header":{"parameterUnit":"m.s-1","parameterCategory":1,"la1":30.2991,"la2":30.254,"lo1":-89.0895,"lo2":-89.0444,"dy":0.0017,"dx":0.0017,"nx":28,"ny":28,"refTime":"2025-11-18T09:00:00:Z","depth":0,"parameterNumber":3,"parameterNumberName":"V-component_of_WINDS"},"data":[0,0,0,0,0,0,0,0,0,0,0,0,0,0,0,0,0,0,0,0,0,0,0,0,0,0,0,0,0,0,0,0,0,0,0,0,0,0,0,0,0,0,0,0,0,0,0,0,0,0,0,0,0,0,0,0,0,0,2.2486,2.2485,0,2.2404,2.2403,2.2402,2.2417,2.2418,2.242,2.2421,2.2328,2.2324,2.232,0,0,0,0,0,0,0,0,0,0,0,0,0,2.2648,2.2645,2.2486,2.2485,2.2484,2.2404,2.2403,2.2402,2.2417,2.2419,2.242,2.2422,2.2329,2.2325,2.232,0,0,0,0,0,0,0,0,0,0,0,0,0,2.2573,2.2644,2.2486,2.2482,2.2481,2.2404,2.2403,2.2401,2.2416,2.2419,2.2421,2.2423,2.2331,2.2325,2.2319,2.2239,0,0,2.2302,2.2299,0,0,0,0,0,0,0,0,2.2577,2.2567,2.2484,2.2482,2.2481,2.2423,2.2426,2.2347,2.2416,2.2441,2.2421,2.2424,2.2357,2.2349,2.2329,2.2235,2.2231,2.2301,2.2298,2.2295,2.2293,0,0,0,0,0,0,0,2.2582,2.257,2.2453,2.2483,2.2481,2.2482,2.2473,2.2411,2.2387,2.2439,2.244,2.243,2.2357,2.2334,2.2327,2.2229,2.2301,2.2296,2.2293,2.229,2.2063,2.2061,0,0,0,0,0,0,2.259,2.2575,2.2456,2.2451,2.2536,2.2477,2.2468,2.2439,2.2388,2.2382,2.2428,2.2431,2.2343,2.2333,2.2323,2.2225,2.2295,2.229,2.2286,2.2066,2.2063,2.206,0,0,0,0,0,0,2.2593,2.2579,2.2459,2.2513,2.2498,2.2472,2.244,2.2436,2.2414,2.238,2.2375,2.241,2.2345,2.2332,2.226,2.2222,2.2287,2.2282,2.2069,2.2065,2.2061,2.2027,0,0,0,0,0,0,2.2598,2.258,2.2551,2.2512,2.2495,2.24,2.2437,2.2433,2.2405,2.2408,2.2362,2.2356,2.2345,2.2269,2.2254,2.2215,2.2277,2.2072,2.2067,2.2063,2.2031,2.2022,2.2015,0,0,0,0,0,2.2604,2.2543,2.255,2.2535,2.2459,2.2398,2.2387,2.2378,2.2402,2.2371,2.235,2.2358,2.2229,2.2261,2.2245,2.2203,2.2074,2.2068,2.2063,2.2035,2.2024,2.2015,0,0,0,0,0,0,2.2575,2.2538,2.2545,2.2471,2.2438,2.24,2.2361,2.2367,2.2324,2.2328,2.2317,2.2306,2.2233,2.2211,2.2248,2.2122,2.2155,2.2145,2.2139,2.2128,2.212,2.2126,2.2272,0,0,0,0,0,2.2561,2.2517,2.2486,2.2423,2.2407,2.2387,2.236,2.2356,2.232,2.2305,2.2278,2.224,2.2191,2.2159,2.2112,2.2029,2.2018,2.1992,2.1984,2.1978,2.1969,2.1922,2.1909,2.2041,2.2041,2.2041,0,0,2.2529,2.2503,2.2476,2.2417,2.2391,2.2343,2.2375,2.2323,2.2286,2.2296,2.2228,2.2207,2.2164,2.2086,2.205,2.2065,2.193,2.197,2.1965,2.196,2.1914,2.1902,2.1891,2.2037,2.2038,2.2039,0,0,2.2447,2.2424,2.2369,2.2343,2.2305,2.2292,2.2279,2.2241,2.2228,2.216,2.2167,2.2122,2.2038,2.2007,2.198,2.1888,2.1893,2.1873,2.1828,2.1782,2.1772,2.1763,2.1727,2.1715,2.1865,2.1864,2.1864,0,2.2411,2.2343,2.2339,2.2287,2.226,2.2271,2.2213,2.2187,2.2133,2.2113,2.2132,2.2027,2.1999,2.1914,2.1891,2.187,2.1852,2.1876,2.1774,2.1765,2.1756,2.1722,2.1709,2.1862,2.1862,2.1863,2.1863,0,2.23,2.2252,2.2212,2.2163,2.2132,2.2077,2.2063,2.2031,2.2031,2.2015,2.1944,2.1912,2.1858,2.1838,2.1836,2.1752,2.1762,2.1778,2.1809,2.1741,2.1709,2.1696,2.1859,2.186,2.186,2.1861,0,0,2.2194,2.2147,2.2132,2.211,2.2069,2.203,2.1975,2.1926,2.1898,2.1861,2.1812,2.1742,2.1757,2.1726,2.1721,2.1681,2.1608,2.1702,2.17,2.1683,2.151,2.1497,2.1482,2.1613,2.161,2.1608,2.1513,0,2.2107,2.2013,2.2009,2.1922,2.1877,2.1887,2.1839,2.1807,2.1792,2.1748,2.173,2.168,2.1705,2.1686,2.1648,2.1625,2.1572,2.1632,2.1564,2.1561,2.1572,2.1466,2.1452,2.1364,2.1501,2.1499,2.1497,0,2.1992,2.1954,2.1864,2.183,2.181,2.1768,2.1722,2.1682,2.1645,2.1636,2.1603,2.1604,2.1545,2.1581,2.1498,2.1539,2.1511,2.1496,2.1492,2.1483,2.1523,2.1451,2.1336,2.1322,2.1478,2.148,2.1481,0,2.1921,2.1848,2.1785,2.1766,2.1725,2.1694,2.1675,2.1641,2.1611,2.1571,2.1551,2.1503,2.1475,2.1437,2.1423,2.1452,2.134,2.1376,2.1328,2.1328,2.1302,2.1303,2.1177,2.1288,2.1288,2.1289,2.1289,0,2.1822,2.1766,2.1753,2.1713,2.165,2.1645,2.1581,2.1564,2.1534,2.1489,2.1495,2.1452,2.1438,2.1392,2.1381,2.1312,2.13,2.129,2.1287,2.1288,2.1289,2.1267,2.1271,2.1285,2.1286,2.1287,2.1287,0,2.1731,2.1721,2.1652,2.162,2.161,2.1565,2.1536,2.1496,2.1483,2.1426,2.1412,2.139,2.1336,2.132,2.1254,2.1247,2.1166,2.117,2.1179,2.1178,2.1131,2.1134,2.0984,2.0963,2.1091,2.1089,2.1088,0,2.1668,2.1625,2.1589,2.1561,2.1542,2.1496,2.1467,2.146,2.1429,2.1385,2.135,2.1298,2.1256,2.1169,2.1145,2.1094,2.1095,2.1046,2.1087,2.1089,2.1091,2.1093,2.1088,2.1037,2.1036,2.1035,2.1034,0,2.1555,2.1552,2.1512,2.1469,2.1435,2.14,2.1366,2.1342,2.1331,2.1295,2.1242,2.1209,2.1144,2.1091,2.104,2.1017,2.1022,2.1022,2.1008,2.1007,2.1013,2.1006,2.1155,2.1024,2.1025,2.1026,2.1027,2.1027,2.1473,2.1436,2.1405,2.1359,2.1335,2.1303,2.1265,2.1248,2.1205,2.1153,2.1151,2.1093,2.1056,2.0989,2.0964,2.0916,2.093,2.091,2.0905,2.0899,2.0894,2.1023,2.0907,2.0907,2.0908,2.0908,2.0908,0,2.1359,2.1341,2.1299,2.1253,2.1217,2.123,2.1193,2.1161,2.1111,2.1078,2.1037,2.0975,2.0924,2.0897,2.0846,2.0812,2.0813,2.0799,2.08,2.0794,2.0886,2.0902,2.0799,2.0799,2.0799,2.0799,2.0799,2.0799,2.1295,2.1232,2.1225,2.1149,2.113,2.1075,2.1053,2.1024,2.0998,2.093,2.0888,2.0873,2.0841,2.0788,2.0741,2.0734,2.0713,2.0697,2.0691,2.0776,2.0787,2.0798,2.0813,2.0693,2.0693,2.0602,2.0601,2.0601]}]]